Weather History for Goodland, KS

Change the Weather History Date:

Tuesday, October 22, 2013

  Actual Average Record
Temperature  
Mean Temperature 52 °F 50 °F  
Max Temperature 67 °F 64 °F 90 °F (2003)
Min Temperature 37 °F 35 °F 19 °F (1936)
Degree Days  
Heating Degree Days 13 15  
Month to date heating degree days 292 259  
Since 1 July heating degree days 346 383  
Cooling Degree Days 0 0  
Month to date cooling degree days 0 5  
Year to date cooling degree days 1181 938  
Growing Degree Days 2 (Base 50)    
Moisture  
Dew Point 36 °F    
Average Humidity 57    
Maximum Humidity 85    
Minimum Humidity 29    
Precipitation  
Precipitation 0.00 in 0.04 in 1.09 in (1978)
Month to date precipitation 1.21 1.03  
Year to date precipitation 16.49 18.15  
Snow  
Snow 0.00 in 0.10 in - ()
Month to date snowfall 4.0 1.3  
Since 1 July snowfall 4.0 1.7  
Since 1 September snowfall 4.0 1.7  
Snow Depth 0.00 in    
Sea Level Pressure  
Sea Level Pressure 30.09 in    
Wind  
Wind Speed 11 mph (NW)    
Max Wind Speed 26 mph    
Max Gust Speed 35 mph    
Visibility 10 miles    
Events      
T = Trace of Precipitation, MM = Missing Value Source: NWS Daily Summary

Daily Weather History Graph

Daily Weather History Graph

Search for Another Location

Airport:

Trip Planner

Search our weather history database for the weather conditions in past years. The results will help you decide how hot, cold, wet, or windy it might be!

Date:

Astronomy

Oct. 22, 2013 Rise Set
Actual Time 7:04 AM MDT 5:57 PM MDT
Civil Twilight 6:36 AM MDT 6:24 PM MDT
Nautical Twilight 6:05 AM MDT 6:56 PM MDT
Astronomical Twilight 5:34 AM MDT 7:27 PM MDT
Moon 8:40 PM MDT (10/22) 10:33 AM MDT (10/22)
Length of Visible Light 11h 47m
Length of Day
10h 53m
Waning Gibbous, 86% of the Moon is Illuminated
Oct 22
Waning Gibbous
Oct 26
Last Quarter
Nov 3
New
Nov 9
First Quarter
Nov 17
Full

Hourly Weather History & Observations

Time (MDT) Temp. Windchill Dew Point Humidity Pressure Visibility Wind Dir Wind Speed Gust Speed Precip Events Conditions
12:53 AM 46.9 °F - 35.1 °F 63% 30.05 in 10.0 mi West 11.5 mph - N/A   Mostly Cloudy
1:53 AM 48.0 °F - 35.1 °F 61% 30.07 in 10.0 mi WNW 12.7 mph - N/A   Mostly Cloudy
2:53 AM 48.0 °F - 35.1 °F 61% 30.06 in 10.0 mi WNW 8.1 mph - N/A   Scattered Clouds
3:53 AM 48.0 °F - 36.0 °F 63% 30.06 in 10.0 mi WNW 6.9 mph - N/A   Overcast
4:53 AM 46.9 °F - 37.0 °F 68% 30.07 in 10.0 mi WNW 6.9 mph - N/A   Overcast
5:53 AM 48.0 °F - 36.0 °F 63% 30.09 in 10.0 mi WNW 10.4 mph - N/A   Overcast
6:53 AM 48.0 °F - 36.0 °F 63% 30.10 in 10.0 mi WNW 11.5 mph - N/A   Overcast
7:53 AM 48.9 °F - 36.0 °F 61% 30.12 in 10.0 mi West 12.7 mph - N/A   Overcast
8:53 AM 51.1 °F - 37.0 °F 59% 30.12 in 10.0 mi WNW 15.0 mph - N/A   Overcast
9:53 AM 55.9 °F - 37.9 °F 51% 30.12 in 10.0 mi WNW 16.1 mph - N/A   Overcast
10:53 AM 61.0 °F - 37.0 °F 41% 30.11 in 10.0 mi NW 16.1 mph 26.5 mph N/A   Overcast
11:53 AM 63.0 °F - 36.0 °F 37% 30.10 in 10.0 mi NW 18.4 mph 29.9 mph N/A   Clear
12:53 PM 66.0 °F - 37.0 °F 34% 30.06 in 10.0 mi NNW 19.6 mph 27.6 mph N/A   Partly Cloudy
1:53 PM 64.0 °F - 36.0 °F 35% 30.06 in 10.0 mi NNW 21.9 mph 28.8 mph N/A   Partly Cloudy
2:53 PM 66.0 °F - 35.1 °F 32% 30.05 in 10.0 mi NNW 17.3 mph 27.6 mph N/A   Partly Cloudy
3:53 PM 66.0 °F - 34.0 °F 30% 30.05 in 10.0 mi NNW 18.4 mph 25.3 mph N/A   Partly Cloudy
4:53 PM 64.0 °F - 35.1 °F 34% 30.06 in 10.0 mi NNW 11.5 mph - N/A   Clear
5:53 PM 57.0 °F - 36.0 °F 45% 30.07 in 10.0 mi North 4.6 mph - N/A   Clear
6:53 PM 51.1 °F - 37.0 °F 59% 30.09 in 10.0 mi Calm Calm - N/A   Clear
7:53 PM 48.0 °F - 35.1 °F 61% 30.10 in 10.0 mi ESE 3.5 mph - N/A   Clear
8:53 PM 42.1 °F 38.4 °F 35.1 °F 76% 30.12 in 10.0 mi ESE 5.8 mph - N/A   Clear
9:53 PM 42.1 °F 38.4 °F 35.1 °F 76% 30.12 in 10.0 mi SSE 5.8 mph - N/A   Clear
10:53 PM 39.9 °F 35.1 °F 35.1 °F 83% 30.11 in 10.0 mi SE 6.9 mph - N/A   Clear
11:53 PM 41.0 °F 34.7 °F 35.1 °F 79% 30.11 in 10.0 mi South 10.4 mph - N/A   Clear